Notices

What's New in latest Release from April 7th, 2021:

- Updated Glossary, including Speed of Maximum Gust, and Total Hourly Precipitation

- Updated national and regional climate services offices contacts and prices information

- Addition of station inventory lists for 1981-2010, 1971-2000, and 1961-1990 Normals.

If you haven't already, please take our survey and provide feedback about our website: https://eccc.sondage-survey.ca/f/LanguageSelection.aspx?s=442ca660-fcf1-47c0-95a9-59707d6fd709

Hourly Data Report for November 14, 2020

SHEARWATER RCS
NOVA SCOTIA
Current Station Operator: ECCC - MSC

44°37'47.000" N
63°30'48.000" W
24.00 m
8205092
71264
AAW

Download Data

Hourly Data (November 2020)
Hourly Data Report for November 14, 2020
TIME
LST
Temp Definition
°C
Dew Point Definition
°C
Rel Hum Definition
%
Precip. Amount Definition
mm

Wind Dir Definition
10's deg

Wind Spd Definition
km/h
Visibility Definition
km
Stn Press Definition
kPa
Hmdx Definition


Wind Chill Definition


Weather Definition


00:00 5.0 4.2 95 0.3 4 15   100.42     LegendNANA
01:00 4.8 4.0 95 0.2 36 12   100.42     LegendNANA
02:00 4.4 3.8 96 0.3 34 16   100.34     LegendNANA
03:00 4.1 3.3 94 0.0 34 16   100.27     LegendNANA
04:00 4.2 3.3 94 0.0 34 15   100.27     LegendNANA
05:00 4.3 3.4 94 0.0 35 16   100.28     LegendNANA
06:00 4.1 3.2 94 0.0 33 12   100.29     LegendNANA
07:00 4.3 3.4 94 0.0 32 12   100.34     LegendNANA
08:00 4.6 3.6 93 0.0 33 15   100.36     LegendNANA
09:00 4.8 3.4 91 0.0 32 17   100.41     LegendNANA
10:00 5.4 3.7 88 0.0 31 17   100.41     LegendNANA
11:00 6.5 3.8 83 0.0 30 17   100.45     LegendNANA
12:00 6.6 3.4 79 0.0 32 20   100.44     LegendNANA
13:00 6.5 3.4 80 0.0 32 16   100.44     LegendNANA
14:00 6.5 2.9 78 0.0 30 19   100.48     LegendNANA
15:00 6.3 2.3 75 0.0 30 19   100.52     LegendNANA
16:00 5.9 2.2 77 0.0 30 18   100.60     LegendNANA
17:00 5.4 2.5 82 0.0 31 20   100.69     LegendNANA
18:00 4.6 1.8 82 0.0 30 22   100.80     LegendNANA
19:00 4.2 1.1 80 0.0 31 22   100.88     LegendNANA
20:00 3.9 0.9 81 0.0 31 20   100.96     LegendNANA
21:00 3.9 0.5 79 0.0 32 15   101.03     LegendNANA
22:00 3.8 0.2 77 0.0 32 19   101.09     LegendNANA
23:00 3.4 0.3 80 0.0 31 13   101.14     LegendNANA

Notes on Data Quality.

Legend

  • E = Estimated
  • M = Missing
  • NA = Not Available*
  • [empty] = Indicates an unobserved value
Date modified: